Regional Weather Roundup
Issued by NWS

Home | Current Version | Previous Version | Text Only | Print | Product List | Glossary On
Versions: 1 2 3 4 5 6 7 8 9 10 11 12 13 14 15 16 17 18 19 20 21 22
000
ASPQ40 PGUM 310710
RWRPQ
WEATHER ROUNDUP FOR THE MARIANAS AND MICRONESIA
NATIONAL WEATHER SERVICE TIYAN GU
500 PM CHST SAT JAN 31 2015

GUZ001>004-310800-
MARIANA ISLANDS-

CITY           SKY/WX    TMP DP  RH WIND       PRES   REMARKS
GUAM AIRPORT   MOSUNNY   84  73  70 NE18      29.85R HX  91
ANDERSEN AFB   MOSUNNY   81  73  78 NE17      29.85R
ROTA AIRPORT   NOT AVBL
TINIAN AP      MOSUNNY   82  72  69 NE15      29.84
SAIPAN AP      MOSUNNY   82  72  69 NE14G21   29.86R

$$

PMZ161-310800-
REPUBLIC OF PALAU-

CITY           SKY/WX    TMP DP  RH WIND       PRES   REMARKS
KOROR AP       NOT AVBL
KOROR WSO      NOT AVBL

$$

PMZ171>174-310800-
FEDERATED STATES OF MICRONESIA-

CITY           SKY/WX    TMP DP  RH WIND       PRES   REMARKS
YAP AIRPORT    NOT AVBL
CHUUK AP       NOT AVBL
POHNPEI AP     NOT AVBL
POHNPEI WSO    NOT AVBL
KOSRAE AP      NOT AVBL

$$

PMZ181-310800-
REPUBLIC OF THE MARSHALL ISLANDS-

CITY           SKY/WX    TMP DP  RH WIND       PRES   REMARKS
KWAJALEIN AP   CLEAR     82  72  69 E15       29.73R
MAJURO AP      NOT AVBL
MAJURO WSO     NOT AVBL

$$




USA.gov is the U.S. government's official web portal to all federal, state and local government web resources and services.